Location: Breungeshain
(50.5000°N, 9.2000°E)
Time: 06:26:28
(UTC+00:00)

ISS - Pass Details

Date: 17 May 2018
Orbit: 402 x 407 km, 51.6° (Epoch: 26 May)

Event Time Altitude Azimuth Distance (km) Brightness Sun altitude
Exits shadow 23:48:18 79° 77° (ENE) 415 -3.9 -19.7°
Drops below altitude 10° 23:51:24 10° 77° (ENE) 1,459 -0.8 -19.7°
Sets 23:53:29 0° 77° (ENE) 2,320 0.3 -19.6°
